Regional Weather Roundup
Issued by NWS Cleveland, OH

Home | Current Version | Previous Version | Text Only | Print | Product List | Glossary Off
Versions: 1 2 3 4 5 6 7 8 9 10 11 12 13 14 15 16 17 18 19 20 21 22 23 24 25 26 27 28 29 30 31 32 33 34 35 36 37 38 39 40 41 42 43 44 45 46 47 48 49 50

000
ASUS41 KCLE 031610
RWRCLE
OHIO REGIONAL WEATHER ROUNDUP
NATIONAL WEATHER SERVICE CLEVELAND, OH
1100 AM EST TUE MAR 03 2015

NOTE: "FAIR" INDICATES FEW OR NO CLOUDS BELOW 12,000 FEET WITH NO
SIGNIFICANT WEATHER AND/OR OBSTRUCTIONS TO VISIBILITY.

OHZ001>008-015>018-024>027-034-035-043-044-031700-
   NORTHWEST OHIO

CITY           SKY/WX    TMP DP  RH WIND       PRES   REMARKS
DEFIANCE       MIX PCPN  29  21  72 SE10      29.88F WCI  20
FINDLAY        MIX PCPN  29  21  72 SE14      29.91F WCI  18
TOLEDO EXPRESS FRZ RAIN  25  20  81 VRB6      29.94F WCI  18
TOLEDO EXEC    MIX PCPN  27  20  75 SE10      29.96F WCI  17
LIMA           LGT RAIN  33  23  66 S22       29.90F WCI  21
$$

OHZ009>014-019>023-028>033-038-089-031700-
   NORTHEAST OHIO

CITY           SKY/WX    TMP DP  RH WIND       PRES   REMARKS
CLE-HOPKINS    FRZ DRZL  27  17  66 SE13      30.05F WCI  16
CLE-LAKEFRONT  LGTSLEET  27  18  69 SE14G22   30.02F WCI  16
CUY CO. ARPT   CLOUDY    27  21  80 S14       30.04F WCI  15
LORAIN-ELYRIA  FRZ RAIN  27  19  72 S15       29.99F WCI  15
ASHTABULA      SNOW      22  19  89 SE8       30.07F VSB 1/2 WCI  12
AKRON-CANTON   CLOUDY    27  16  63 S8        30.05R WCI  19
WOOSTER        CLOUDY    25  17  72 SE8       30.04F WCI  16
MANSFIELD      CLOUDY    28  18  66 SE13      29.98F WCI  17
YOUNGSTOWN     FRZ RAIN  22  17  81 E13       30.05F WCI  10
$$

OHZ042-051>053-060>062-070>072-077>081-031700-
  SOUTHWEST OHIO

CITY           SKY/WX    TMP DP  RH WIND       PRES   REMARKS
CINC-COVINGTON LGT RAIN  33  29  85 SE9       29.96F FOG     WCI  25
CINC-LUNKEN    LGT RAIN  33  28  81 S5        30.01F WCI  29
HAMILTON       LGT RAIN  32  28  85 VRB3      29.98F FOG
DAYTON         FRZ RAIN  30  25  81 SE16      29.92F WCI  19
WRIGHT-PAT AFB FRZ RAIN  31  24  75 SE9       29.95F WCI  22
DAYTON GENERAL CLOUDY    33  26  75 S18       29.94F WCI  22
WILMINGTON     MIX PCPN  32  26  78 SE9       29.97F WCI  24
$$

OHZ036-037-039>041-045>050-054>059-063>069-073>076-082>088-031700-
  CENTRAL AND SOUTHEAST OHIO

CITY           SKY/WX    TMP DP  RH WIND       PRES   REMARKS
COLUMBUS       CLOUDY    30  19  63 SE10      30.02F WCI  21
OSU AIRPORT    CLOUDY    30  19  63 SE9       30.00F WCI  22
BOLTON FIELD   CLOUDY    30  21  69 SE7       30.03F WCI  23
RICKENBACK AFB CLOUDY    32  20  63 SE7       30.01F WCI  25
NEWARK         CLOUDY    31  20  63 SE7       30.02F WCI  24
MARION         CLOUDY    29  20  69 SE15      29.96F HAZE    WCI  18
LANCASTER      CLOUDY    32  21  64 SE9       30.03F WCI  24
ZANESVILLE     CLOUDY    31  18  58 S3        30.06F
NEW PHILLY     CLOUDY    30  17  58 VRB5      30.06F WCI  25
$$


USA.gov is the U.S. government's official web portal to all federal, state and local government web resources and services.